Stations météo

réclame
Mon MeteoGroup
Olbia/Costa Smeralda, Italie (16531): Température de l'air & dewpoint: 17.10.2017 06:00:00 - 23.10.2017 06:00:00 (CEST)Olbia/Costa Smeralda, Italie (16531): Vitesse du vent: 17.10.2017 06:00:00 - 23.10.2017 06:00:00 (CEST)Olbia/Costa Smeralda, Italie (16531): Direction du vent: 17.10.2017 06:00:00 - 23.10.2017 06:00:00 (CEST)Olbia/Costa Smeralda, Italie (16531): reduced air pressure: 17.10.2017 06:00:00 - 23.10.2017 06:00:00 (CEST)Olbia/Costa Smeralda, Italie (16531): visibility: 17.10.2017 06:00:00 - 23.10.2017 06:00:00 (CEST)
Date & Time tt [°C] td [°C] ff [km/h] ff [knt] dd ppp [hPa] vv [km]
23.10.2017 06:00:00 - - - - - - -
23.10.2017 05:00:00 16,5 6,8 24 13 W 1015,0 10
23.10.2017 04:00:00 17,0 7,0 31 17 W - 10
23.10.2017 03:00:00 18,0 6,0 46 25 W - 10
23.10.2017 02:00:00 17,5 6,9 50 27 WSW 1014,0 10
23.10.2017 01:00:00 18,0 7,0 34 18 WSW - 10
23.10.2017 00:00:00 18,0 8,0 34 18 WSW - 10
22.10.2017 23:00:00 17,7 8,5 39 21 WSW 1016,0 10
22.10.2017 22:00:00 18,0 8,0 35 19 WSW - 10
22.10.2017 21:00:00 18,0 8,0 34 18 W - 10
22.10.2017 20:00:00 17,6 7,9 37 20 WSW 1016,0 10
22.10.2017 19:00:00 18,0 8,0 42 23 WSW - 10
22.10.2017 18:00:00 19,0 8,0 42 23 WSW - 10
22.10.2017 17:00:00 20,3 7,6 37 20 W 1016,0 10
22.10.2017 16:00:00 21,0 8,0 39 21 W - 10
22.10.2017 15:00:00 22,0 7,0 42 23 W - 10
22.10.2017 14:00:00 21,9 9,7 29 16 W 1017,0 10
22.10.2017 13:00:00 23,0 11,0 35 19 W - 10
22.10.2017 12:00:00 22,0 13,0 24 13 WSW - 10
22.10.2017 11:00:00 21,8 13,1 31 17 WSW 1019,0 10
22.10.2017 10:00:00 22,0 16,0 28 15 SW - 10
22.10.2017 09:00:00 20,0 16,0 22 12 SW - 10
22.10.2017 08:00:00 18,6 15,8 21 11 SW 1018,0 10
22.10.2017 07:00:00 18,0 15,0 13 7 SW - 10
22.10.2017 06:00:00 19,0 15,0 22 12 SW - 10
22.10.2017 05:00:00 18,7 14,8 21 11 SW 1018,0 10
22.10.2017 04:00:00 - - - - - - -
22.10.2017 03:00:00 18,0 14,0 11 6 SSW - 10
22.10.2017 02:00:00 18,4 14,7 16 9 SW 1020,0 10
22.10.2017 01:00:00 18,0 15,0 13 7 SW - 10
22.10.2017 00:00:00 19,0 15,0 8 4 SSW - 10
21.10.2017 23:00:00 18,8 15,0 8 4 WSW 1021,0 10
21.10.2017 22:00:00 18,0 15,0 4 2 - - 10
21.10.2017 21:00:00 20,0 16,0 4 2 - - 10
21.10.2017 20:00:00 20,5 16,2 5 3 NE 1021,0 10
21.10.2017 19:00:00 22,0 16,0 8 4 NE - 10
21.10.2017 18:00:00 23,0 15,0 11 6 ENE - 10
21.10.2017 17:00:00 24,3 15,9 13 7 NE 1020,0 10
21.10.2017 16:00:00 25,0 15,0 15 8 NE - 10
21.10.2017 15:00:00 24,0 17,0 21 11 NE - 10
21.10.2017 14:00:00 26,4 16,3 21 11 NE 1021,0 10
21.10.2017 13:00:00 27,0 15,0 4 2 - - 10
21.10.2017 12:00:00 25,0 15,0 9 5 - - 10
21.10.2017 11:00:00 23,6 15,7 8 4 SSW 1022,0 10
21.10.2017 10:00:00 20,0 16,0 5 3 SSW - 10
21.10.2017 09:00:00 15,0 14,0 5 3 SW - 10
21.10.2017 08:00:00 13,5 13,0 4 2 - 1021,0 10
21.10.2017 07:00:00 13,0 13,0 4 2 - - 10
21.10.2017 06:00:00 14,0 13,0 4 2 SW - 10
21.10.2017 05:00:00 13,8 13,4 5 3 SW 1020,0 10
21.10.2017 04:00:00 14,0 13,0 4 2 - - 10
21.10.2017 03:00:00 15,0 15,0 5 3 SSW - 10
21.10.2017 02:00:00 15,0 14,4 5 3 SW 1020,0 10
21.10.2017 01:00:00 15,0 15,0 5 3 SW - 10
21.10.2017 00:00:00 16,0 15,0 0 0 N - 10
20.10.2017 23:00:00 16,6 15,5 4 2 WSW 1021,0 10
20.10.2017 22:00:00 19,0 17,0 8 4 SSW - 10
20.10.2017 21:00:00 20,0 18,0 5 3 E - 10
20.10.2017 20:00:00 20,5 17,6 8 4 E 1019,0 10
20.10.2017 19:00:00 21,0 18,0 11 6 E - 10
20.10.2017 18:00:00 22,0 18,0 13 7 E - 10
20.10.2017 17:00:00 23,2 17,6 15 8 E 1018,0 10
20.10.2017 16:00:00 24,0 17,0 18 10 E - 10
20.10.2017 15:00:00 24,0 18,0 21 11 E - 10
20.10.2017 14:00:00 23,8 17,4 18 10 E 1018,0 10
20.10.2017 13:00:00 24,0 18,0 22 12 E - 10
20.10.2017 12:00:00 24,0 17,0 21 11 E - 10
20.10.2017 11:00:00 22,0 18,3 18 10 E 1018,0 10
20.10.2017 10:00:00 20,0 17,0 5 3 - - 10
20.10.2017 09:00:00 16,0 16,0 8 4 SSW - 10
20.10.2017 08:00:00 14,6 13,8 4 2 - 1016,0 10
20.10.2017 07:00:00 14,0 13,0 11 6 SW - 10
20.10.2017 06:00:00 14,0 13,0 8 4 SW - 10
20.10.2017 05:00:00 12,7 12,2 4 2 - 1015,0 10
20.10.2017 04:00:00 14,0 13,0 8 4 SSW - 10
20.10.2017 03:00:00 13,0 12,0 4 2 - - 10
20.10.2017 02:00:00 14,4 13,3 9 5 SW 1015,0 10
20.10.2017 01:00:00 17,0 15,0 5 3 - - 10
20.10.2017 00:00:00 20,0 17,0 4 2 - - 10
19.10.2017 23:00:00 20,6 17,3 11 6 E 1015,0 10
19.10.2017 22:00:00 21,0 17,0 5 3 SE - 10
19.10.2017 21:00:00 21,0 17,0 13 7 E - 10
19.10.2017 20:00:00 21,4 17,2 13 7 E 1015,0 10
19.10.2017 19:00:00 22,0 17,0 13 7 E - 10
19.10.2017 18:00:00 22,0 17,0 18 10 E - 10
19.10.2017 17:00:00 22,4 16,9 21 11 E 1014,0 10
19.10.2017 16:00:00 24,0 17,0 26 14 E - 10
19.10.2017 15:00:00 24,0 17,0 24 13 E - 10
19.10.2017 14:00:00 24,6 16,4 22 12 E 1015,0 10
19.10.2017 13:00:00 24,0 16,0 15 8 E - 10
19.10.2017 12:00:00 24,0 16,0 13 7 E - 10
19.10.2017 11:00:00 21,3 16,2 8 4 NE 1016,0 10
19.10.2017 10:00:00 16,0 14,0 0 0 N - 10
19.10.2017 09:00:00 12,0 12,0 8 4 SW - 10
19.10.2017 08:00:00 9,1 8,7 0 0 N 1017,0 10
19.10.2017 07:00:00 11,0 11,0 9 5 SW - 10
19.10.2017 06:00:00 10,0 9,0 4 2 - - 10
19.10.2017 05:00:00 11,3 10,8 11 6 SW 1017,0 10
19.10.2017 04:00:00 11,0 10,0 5 3 SW - 10
19.10.2017 03:00:00 12,0 12,0 5 3 SW - 10
19.10.2017 02:00:00 12,7 11,9 0 0 N 1017,0 10
19.10.2017 01:00:00 13,0 13,0 5 3 SW - 10
19.10.2017 00:00:00 15,0 14,0 8 4 SW - 10
18.10.2017 23:00:00 15,1 13,7 9 5 SW 1018,0 10
18.10.2017 22:00:00 17,0 15,0 8 4 S - 10
18.10.2017 21:00:00 19,0 15,0 2 1 - - 10
18.10.2017 20:00:00 18,9 15,0 4 2 - 1017,0 10
18.10.2017 19:00:00 21,0 16,0 9 5 ESE - 10
18.10.2017 18:00:00 22,0 16,0 15 8 E - 10
18.10.2017 17:00:00 22,8 15,8 13 7 E 1017,0 10
18.10.2017 16:00:00 24,0 16,0 18 10 E - 10
18.10.2017 15:00:00 24,0 16,0 18 10 E - 10
18.10.2017 14:00:00 24,1 15,3 18 10 ENE 1018,0 10
18.10.2017 13:00:00 24,0 15,0 15 8 ENE - 10
18.10.2017 12:00:00 23,0 14,0 5 3 - - 10
18.10.2017 11:00:00 20,7 13,0 4 2 - 1020,0 10
18.10.2017 10:00:00 17,0 12,0 4 2 - - 10
18.10.2017 09:00:00 13,0 13,0 0 0 N - 10
18.10.2017 08:00:00 10,3 9,8 4 2 - 1020,0 10
18.10.2017 07:00:00 11,0 11,0 5 3 SW - 10
18.10.2017 06:00:00 11,0 10,0 0 0 N - 10
18.10.2017 05:00:00 10,8 10,1 4 2 SSW 1021,0 10
18.10.2017 04:00:00 13,0 12,0 5 3 SSW - 10
18.10.2017 03:00:00 12,0 11,0 4 2 - - 10
18.10.2017 02:00:00 12,8 11,9 8 4 SW 1022,0 10
18.10.2017 01:00:00 14,0 13,0 8 4 SSW - 10
18.10.2017 00:00:00 13,0 12,0 4 2 - - 8
17.10.2017 23:00:00 14,7 13,7 0 0 N 1023,0 8
17.10.2017 22:00:00 15,0 14,0 2 1 - - 10
17.10.2017 21:00:00 17,0 15,0 5 3 S - 10
17.10.2017 20:00:00 18,6 15,3 5 3 SE 1023,0 10
17.10.2017 19:00:00 20,0 16,0 8 4 E - 10
17.10.2017 18:00:00 22,0 16,0 11 6 E - 10
17.10.2017 17:00:00 22,7 16,4 15 8 ENE 1022,0 10
17.10.2017 16:00:00 23,0 16,0 15 8 ENE - 10
17.10.2017 15:00:00 23,0 17,0 22 12 NE - 10
17.10.2017 14:00:00 22,9 16,5 22 12 NE 1024,0 10
17.10.2017 13:00:00 23,0 16,0 15 8 NE - 10
17.10.2017 12:00:00 22,0 14,0 5 3 NNW - 10
17.10.2017 11:00:00 19,9 14,2 5 3 WNW 1026,0 10
17.10.2017 10:00:00 17,0 11,0 8 4 SW - 10
17.10.2017 09:00:00 13,0 10,0 8 4 SSW - 10
17.10.2017 08:00:00 12,4 11,1 9 5 SSW 1026,0 10
17.10.2017 07:00:00 13,0 12,0 8 4 SW - 10
17.10.2017 06:00:00 15,0 13,0 5 3 SSW - 8

tt = Température de l'air
td = dewpoint
ff = Vitesse du vent
dd = Direction du vent
ppp = reduced air pressure
vv = visibility

stations d'obs. à proximité